This demonstration page uses our WeatherBlox Daily Observations layout. Learn more.

Hourly Observations for May 15, 2015

Temp ( °F °C ) Dew Point ( °F °C ) Humidity (%) Winds ( mph kmh ) Pressure ( in mb ) Visibility ( mi km ) Precip ( " mm )
12:15 am 00:15 Clear 62 16.8 58 14.3 85 85 SSE 10 17 29.85 1011 10 16.0934 0 0
12:35 am 00:35 Clear 63 17.4 58 14.6 84 84 SSE 14 22 29.85 1011 10 16.0934 0 0
12:55 am 00:55 Clear 63 17.2 58 14.6 85 85 SSE 12 19 29.85 1011 10 16.0934 0 0
1:15 am 01:15 Clear 62 16.8 58 14.5 86 86 SSE 12 19 29.85 1011 10 16.0934 0 0
1:35 am 01:35 Clear 61 16.2 58 14.4 89 89 SSE 9 15 29.85 1011 10 16.0934 0 0
1:55 am 01:55 Clear 62 16.5 58 14.5 88 88 SSE 9 15 29.85 1011 10 16.0934 0 0
2:15 am 02:15 Clear 60 15.8 57 14.1 90 90 SSE 9 15 29.85 1011 10 16.0934 0 0
2:35 am 02:35 Clear 60 15.6 57 14.1 91 91 SSE 6 9 29.83 1010 10 16.0934 0 0
2:55 am 02:55 Clear with Nearby Thunderstorms 59 15.1 57 13.8 92 92 SSE 9 15 29.83 1010 10 16.0934 0 0
3:15 am 03:15 Clear 59 15 57 13.7 92 92 ESE 7 11 29.8 1009 10 16.0934 0 0
3:35 am 03:35 Clear 59 15 57 14 94 94 SE 9 15 29.8 1009 10 16.0934 0 0
3:55 am 03:55 Clear with Nearby Thunderstorms 59 15.1 57 14 93 93 SE 9 15 29.83 1010 10 16.0934 0 0
4:15 am 04:15 Clear 60 15.4 57 14.1 92 92 SSE 10 17 29.83 1010 10 16.0934 0 0
4:35 am 04:35 Clear with Nearby Thunderstorms 61 16.3 58 14.7 90 90 S 10 17 29.83 1010 10 16.0934 0 0
4:55 am 04:55 Partly Cloudy with Light Thunderstorms 61 16.2 58 14.7 91 91 S 7 11 29.83 1010 10 16.0934 0 0
5:15 am 05:15 Cloudy with Light Thunderstorms 61 16 58 14.7 92 92 S 9 15 29.83 1010 10 16.0934 0 0
5:35 am 05:35 Cloudy with Light Thunderstorms 61 15.9 58 14.7 93 93 S 10 17 29.83 1010 10 16.0934 0.01 0.254
5:55 am 05:55 Cloudy with Thunderstorms 60 15.7 58 14.5 93 93 SSE 8 13 29.83 1010 7 11.26538 0.04 1.016
6:15 am 06:15 Cloudy with Heavy Thunderstorms 60 15.4 57 13.9 91 91 SSE 12 19 29.88 1012 5 8.0467 0.14 3.556
6:35 am 06:35 Cloudy 59 15.1 55 12.6 85 85 SSE 18 30 29.88 1012 7 11.26538 0.21 5.334
6:55 am 06:55 Cloudy with Rain 58 14.5 54 12.3 87 87 SSE 21 33 29.88 1012 10 16.0934 0.23 5.842
7:15 am 07:15 Cloudy with Light Rain 59 14.8 53 11.7 82 82 SSE 15 24 29.88 1012 10 16.0934 0 0
7:35 am 07:35 Cloudy 58 14.2 54 12 87 87 SSE 13 20 29.88 1012 10 16.0934 0 0
7:55 am 07:55 Cloudy with Rain 58 14.2 54 12.1 87 87 SE 13 20 29.88 1012 10 16.0934 0.01 0.254
8:15 am 08:15 Cloudy with Light Rain 58 14.7 54 12 84 84 SE 15 24 29.88 1012 10 16.0934 0.01 0.254
8:35 am 08:35 Mostly Cloudy with Light Rain 61 15.9 53 11.4 75 75 SSE 13 20 29.85 1011 10 16.0934 0.03 0.762
8:55 am 08:55 Partly Cloudy 62 16.5 55 13 80 80 ESE 6 9 29.85 1011 10 16.0934 0.03 0.762
9:15 am 09:15 Partly Cloudy 63 17.2 56 13.5 79 79 SSE 6 9 29.85 1011 10 16.0934 0 0
9:35 am 09:35 Sunny 64 18 56 13.6 76 76 SE 9 15 29.85 1011 10 16.0934 0 0
9:55 am 09:55 Sunny 65 18.6 56 13.6 73 73 SSE 14 22 29.83 1010 10 16.0934 0 0
10:15 am 10:15 Sunny 67 19.3 57 13.8 71 71 SE 16 26 29.8 1009 10 16.0934 0 0
10:35 am 10:35 Sunny 68 20 57 13.8 68 68 SSE 10 17 29.8 1009 10 16.0934 0 0
10:55 am 10:55 Sunny 67 19.7 57 13.7 68 68 SE 12 19 29.8 1009 10 16.0934 0 0
11:15 am 11:15 Sunny 69 20.4 58 14.3 68 68 SSE 12 19 29.77 1008 10 16.0934 0 0
11:35 am 11:35 Sunny 71 21.5 59 14.9 66 66 SSE 12 19 29.77 1008 10 16.0934 0 0
11:55 am 11:55 Sunny 72 22.3 59 14.8 63 63 SSE 12 19 29.77 1008 10 16.0934 0 0
12:15 pm 12:15 Sunny 72 22.2 56 13.3 57 57 S 9 15 29.74 1007 10 16.0934 0 0
12:35 pm 12:35 Sunny 73 22.7 55 12.6 53 53 S 10 17 29.77 1008 10 16.0934 0 0
12:55 pm 12:55 Partly Cloudy 74 23.1 56 13.4 55 55 S 12 19 29.74 1007 10 16.0934 0 0
1:15 pm 13:15 Partly Cloudy 74 23.2 56 13.5 55 55 SSE 14 22 29.74 1007 10 16.0934 0 0
1:35 pm 13:35 Partly Cloudy 74 23.4 56 13.6 54 54 SE 16 26 29.71 1006 10 16.0934 0 0
1:55 pm 13:55 Partly Cloudy 75 23.7 57 14.1 55 55 SE 13 20 29.71 1006 10 16.0934 0 0
2:15 pm 14:15 Sunny 75 24.1 57 13.8 53 53 SSE 12 19 29.71 1006 10 16.0934 0 0
2:35 pm 14:35 Partly Cloudy 74 23.3 57 13.8 55 55 SSE 17 28 29.68 1005 10 16.0934 0 0
2:55 pm 14:55 Partly Cloudy 76 24.4 58 14.7 55 55 SE 14 22 29.68 1005 10 16.0934 0 0
3:15 pm 15:15 Partly Cloudy 75 23.7 58 14.7 57 57 SE 17 28 29.68 1005 10 16.0934 0 0
3:35 pm 15:35 Partly Cloudy 76 24.5 58 14.2 53 53 SE 17 28 29.65 1004 10 16.0934 0 0
3:55 pm 15:55 Partly Cloudy 76 24.6 57 14.1 52 52 SE 20 31 29.65 1004 10 16.0934 0 0
4:15 pm 16:15 Partly Cloudy 76 24.5 58 14.5 54 54 SE 21 33 29.65 1004 10 16.0934 0 0
4:35 pm 16:35 Partly Cloudy 76 24.4 55 12.8 48 48 SE 25 41 29.68 1005 10 16.0934 0 0
4:55 pm 16:55 Partly Cloudy 76 24.6 56 13.2 49 49 SE 23 37 29.62 1003 10 16.0934 0 0
5:15 pm 17:15 Partly Cloudy 75 24 56 13.3 51 51 SE 23 37 29.65 1004 10 16.0934 0 0
5:35 pm 17:35 Partly Cloudy 74 23.3 55 12.5 51 51 SE 20 31 29.65 1004 10 16.0934 0 0
5:55 pm 17:55 Sunny 74 23.1 56 13.2 54 54 SE 21 33 29.65 1004 10 16.0934 0 0
6:15 pm 18:15 Sunny 74 23.6 58 14.2 56 56 SE 24 39 29.65 1004 10 16.0934 0 0
6:35 pm 18:35 Partly Cloudy 73 22.7 58 14.4 60 60 SE 23 37 29.65 1004 10 16.0934 0 0
6:55 pm 18:55 Partly Cloudy 73 22.9 58 14.6 60 60 SE 18 30 29.65 1004 10 16.0934 0 0
7:15 pm 19:15 Sunny 72 22.2 57 13.9 59 59 SE 20 31 29.65 1004 10 16.0934 0 0
7:35 pm 19:35 Sunny 71 21.5 57 14.1 63 63 SE 17 28 29.65 1004 10 16.0934 0 0
7:55 pm 19:55 Sunny 71 21.5 58 14.5 65 65 SE 21 33 29.62 1003 10 16.0934 0 0
8:15 pm 20:15 Sunny 70 21.1 59 15.2 69 69 SE 20 31 29.65 1004 10 16.0934 0 0
8:35 pm 20:35 Sunny 69 20.6 60 15.6 73 73 ESE 21 33 29.65 1004 10 16.0934 0 0
8:55 pm 20:55 Clear 68 20 61 15.9 77 77 SE 18 30 29.68 1005 10 16.0934 0 0
9:15 pm 21:15 Partly Cloudy 68 20.1 61 16.1 78 78 ESE 22 35 29.68 1005 10 16.0934 0 0
9:35 pm 21:35 Mostly Cloudy with Nearby Thunderstorms 68 19.9 61 16.3 80 80 SE 23 37 29.68 1005 10 16.0934 0 0
9:55 pm 21:55 Mostly Cloudy with Light Rain 67 19.3 62 16.7 85 85 SE 17 28 29.68 1005 10 16.0934 0 0
10:15 pm 22:15 Mostly Cloudy 67 19.3 62 16.5 84 84 SE 20 31 29.68 1005 10 16.0934 0 0
10:35 pm 22:35 Partly Cloudy 66 18.8 62 16.5 87 87 SE 20 31 29.68 1005 10 16.0934 0 0
10:55 pm 22:55 Clear 66 18.7 62 16.5 87 87 SE 21 33 29.68 1005 10 16.0934 0 0
11:15 pm 23:15 Clear 65 18.6 62 16.5 88 88 SE 22 35 29.68 1005 10 16.0934 0 0
11:35 pm 23:35 Clear 66 18.7 62 16.5 87 87 SE 24 39 29.68 1005 10 16.0934 0 0
11:55 pm 23:55 Clear 66 19.1 62 16.6 86 86 SSE 24 39 29.65 1004 10 16.0934 0 0

Powered by AerisWeather